[Date Prev][Date Next][Thread Prev][Thread Next] - [Date Index][Thread Index][Author Index]
2 Line ISS Keps 8-31
- Subject: [sarex] 2 Line ISS Keps 8-31
- From: "Dave Larsen PhD" <doc@xxxxxxxxxxx>
- Date: Fri, 31 Aug 2001 05:28:56 -0700
ISS
1 25544U 98067A 01243.48663351 .00029045 00000-0 39101-3 0 4088
2 25544 51.6387 69.5534 0008367 54.6304 349.2264 15.57573592158834
----
Via the sarex mailing list at AMSAT.ORG courtesy of AMSAT-NA.
To unsubscribe, send "unsubscribe sarex" to Majordomo@amsat.org
AMSAT Home